• In Hungary
  • List of Countries
  • For 7 days
  • Water Temperature
  • Satellite Maps
  • Weather Map
  • News
  • Weather Widgets
  • user-avatar
    Login

    Hourly Weather Ponferrada

    Today, 18 September, Tuesday

    Time Temperature Precipitation Wind Pressure Humidity
    00:00 +19°C° 0 mm 1 mps 714 mmHg 63%
    01:00 +19°C° 0 mm 1 mps 714 mmHg 64%
    02:00 +19°C° 0 mm 1 mps 714 mmHg 65%
    03:00 +18°C° 0 mm 1 mps 714 mmHg 66%
    04:00 +18°C° 0 mm 1 mps 714 mmHg 66%
    05:00 +18°C° 0 mm 1 mps 714 mmHg 67%
    06:00 +16°C° 0 mm 1 mps 714 mmHg 66%
    07:00 +20°C° 0 mm 1 mps 714 mmHg 59%
    08:00 +22°C° 0 mm 1 mps 715 mmHg 51%
    09:00 +25°C° 0 mm 1 mps 716 mmHg 44%
    10:00 +26°C° 0 mm 1 mps 716 mmHg 40%
    11:00 +28°C° 0 mm 2 mps 716 mmHg 36%
    12:00 +30°C° 0 mm 2 mps 716 mmHg 32%
    13:00 +30°C° 0 mm 2 mps 716 mmHg 31%
    14:00 +30°C° 0 mm 3 mps 716 mmHg 30%
    15:00 +30°C° 0 mm 3 mps 715 mmHg 29%
    16:00 +28°C° 0 mm 3 mps 715 mmHg 35%
    17:00 +27°C° 0 mm 2 mps 715 mmHg 41%
    18:00 +25°C° 0 mm 2 mps 715 mmHg 47%
    19:00 +23°C° 0 mm 2 mps 716 mmHg 54%
    20:00 +22°C° 0 mm 1 mps 716 mmHg 60%
    21:00 +20°C° 0 mm 1 mps 717 mmHg 67%
    22:00 +19°C° 0 mm 1 mps 717 mmHg 69%
    23:00 +19°C° 0 mm 1 mps 717 mmHg 72%

    Tomorrow, 19 September, Wednesday

    Time Temperature Precipitation Wind Pressure Humidity
    00:00 +18°C° 0 mm 1 mps 716 mmHg 74%
    01:00 +18°C° 0 mm 1 mps 716 mmHg 75%
    02:00 +16°C° 0 mm 1 mps 716 mmHg 75%
    03:00 +16°C° 0 mm 1 mps 716 mmHg 76%
    04:00 +16°C° 0 mm 1 mps 716 mmHg 75%
    05:00 +16°C° 0 mm 1 mps 716 mmHg 73%
    06:00 +15°C° 0 mm 1 mps 717 mmHg 72%
    07:00 +19°C° 0 mm 1 mps 717 mmHg 61%
    08:00 +20°C° 0 mm 0 mps 718 mmHg 51%
    09:00 +23°C° 0 mm 0 mps 719 mmHg 40%
    10:00 +27°C° 0 mm 1 mps 719 mmHg 34%
    11:00 +29°C° 0 mm 1 mps 719 mmHg 28%
    12:00 +30°C° 0 mm 1 mps 719 mmHg 22%
    13:00 +31°C° 0 mm 2 mps 719 mmHg 22%
    14:00 +31°C° 0 mm 2 mps 718 mmHg 22%
    15:00 +31°C° 0 mm 2 mps 718 mmHg 21%
    16:00 +29°C° 0 mm 2 mps 718 mmHg 28%
    17:00 +27°C° 0 mm 1 mps 718 mmHg 34%
    18:00 +25°C° 0 mm 1 mps 717 mmHg 40%
    19:00 +24°C° 0 mm 1 mps 718 mmHg 46%
    20:00 +22°C° 0 mm 1 mps 718 mmHg 52%
    21:00 +20°C° 0 mm 1 mps 718 mmHg 57%
    22:00 +20°C° 0 mm 1 mps 718 mmHg 58%
    23:00 +19°C° 0 mm 1 mps 718 mmHg 58%

    Day after tomorrow, 20 September, Thursday

    Time Temperature Precipitation Wind Pressure Humidity
    00:00 +19°C° 0 mm 1 mps 717 mmHg 58%
    01:00 +19°C° 0 mm 1 mps 717 mmHg 57%
    02:00 +18°C° 0 mm 1 mps 717 mmHg 56%
    03:00 +18°C° 0 mm 1 mps 716 mmHg 54%
    04:00 +18°C° 0 mm 1 mps 716 mmHg 54%
    05:00 +18°C° 0 mm 1 mps 716 mmHg 54%
    06:00 +16°C° 0 mm 1 mps 716 mmHg 53%
    07:00 +20°C° 0 mm 1 mps 717 mmHg 47%
    08:00 +23°C° 0 mm 1 mps 717 mmHg 40%
    09:00 +26°C° 0 mm 1 mps 718 mmHg 34%
    10:00 +28°C° 0 mm 1 mps 717 mmHg 30%
    11:00 +29°C° 0 mm 2 mps 717 mmHg 26%
    12:00 +31°C° 0 mm 3 mps 717 mmHg 22%
    13:00 +31°C° 0 mm 3 mps 717 mmHg 22%
    14:00 +32°C° 0 mm 4 mps 717 mmHg 22%
    15:00 +32°C° 0 mm 4 mps 716 mmHg 22%
    16:00 +29°C° 0 mm 3 mps 716 mmHg 28%
    17:00 +27°C° 0 mm 3 mps 716 mmHg 34%
    18:00 +25°C° 0 mm 2 mps 716 mmHg 40%
    19:00 +23°C° 0 mm 2 mps 716 mmHg 46%
    20:00 +20°C° 0 mm 2 mps 717 mmHg 53%
    21:00 +18°C° 0 mm 2 mps 717 mmHg 59%
    22:00 +18°C° 0 mm 2 mps 717 mmHg 62%
    23:00 +17°C° 0 mm 2 mps 717 mmHg 65%

    21 September, Friday

    Time Temperature Precipitation Wind Pressure Humidity
    00:00 +16°C° 0 mm 2 mps 717 mmHg 68%
    01:00 +16°C° 0 mm 2 mps 716 mmHg 66%
    02:00 +16°C° 0 mm 2 mps 716 mmHg 65%
    03:00 +16°C° 0 mm 2 mps 716 mmHg 63%
    04:00 +16°C° 0 mm 2 mps 716 mmHg 63%
    05:00 +16°C° 0 mm 1 mps 716 mmHg 63%
    06:00 +16°C° 0 mm 1 mps 717 mmHg 64%
    07:00 +18°C° 0 mm 2 mps 717 mmHg 65%
    08:00 +19°C° 0 mm 2 mps 718 mmHg 66%
    09:00 +20°C° 0 mm 2 mps 718 mmHg 67%
    10:00 +23°C° 0 mm 2 mps 719 mmHg 64%
    11:00 +24°C° 0 mm 2 mps 719 mmHg 61%
    12:00 +26°C° 0 mm 2 mps 719 mmHg 58%
    13:00 +26°C° 0 mm 2 mps 719 mmHg 55%
    14:00 +27°C° 0 mm 2 mps 719 mmHg 53%
    15:00 +27°C° 0 mm 2 mps 718 mmHg 51%
    16:00 +26°C° 0 mm 2 mps 718 mmHg 56%
    17:00 +25°C° 0 mm 2 mps 719 mmHg 61%
    18:00 +23°C° 0 mm 2 mps 719 mmHg 65%
    19:00 +21°C° 0 mm 2 mps 719 mmHg 72%
    20:00 +20°C° 0 mm 1 mps 719 mmHg 78%
    21:00 +19°C° 0 mm 1 mps 719 mmHg 84%
    22:00 +19°C° 0 mm 1 mps 719 mmHg 85%
    23:00 +18°C° 0 mm 1 mps 719 mmHg 86%

    22 September, Saturday

    Time Temperature Precipitation Wind Pressure Humidity
    00:00 +18°C° 0 mm 1 mps 719 mmHg 87%
    01:00 +18°C° 0 mm 1 mps 719 mmHg 87%
    02:00 +18°C° 0 mm 1 mps 719 mmHg 87%
    03:00 +16°C° 0 mm 1 mps 719 mmHg 87%
    04:00 +16°C° 0 mm 1 mps 719 mmHg 87%
    05:00 +16°C° 0 mm 1 mps 719 mmHg 87%
    06:00 +16°C° 0 mm 1 mps 719 mmHg 87%
    07:00 +18°C° 0 mm 0 mps 720 mmHg 74%
    08:00 +21°C° 0 mm 0 mps 720 mmHg 61%
    09:00 +24°C° 0 mm 0 mps 721 mmHg 49%
    10:00 +26°C° 0 mm 0 mps 721 mmHg 42%
    11:00 +30°C° 0 mm 1 mps 721 mmHg 36%
    12:00 +32°C° 0 mm 1 mps 721 mmHg 29%
    13:00 +32°C° 0 mm 1 mps 721 mmHg 29%
    14:00 +32°C° 0 mm 1 mps 721 mmHg 28%
    15:00 +33°C° 0 mm 1 mps 720 mmHg 28%
    16:00 +31°C° 0 mm 1 mps 720 mmHg 34%
    17:00 +29°C° 0 mm 1 mps 720 mmHg 40%
    18:00 +27°C° 0 mm 1 mps 720 mmHg 46%
    19:00 +25°C° 0 mm 1 mps 720 mmHg 50%
    20:00 +24°C° 0 mm 1 mps 720 mmHg 54%
    21:00 +22°C° 0 mm 1 mps 721 mmHg 58%
    22:00 +22°C° 0 mm 1 mps 721 mmHg 58%
    23:00 +22°C° 0 mm 1 mps 721 mmHg 58%

    23 September, Sunday

    Time Temperature Precipitation Wind Pressure Humidity
    00:00 +21°C° 0 mm 1 mps 721 mmHg 59%
    01:00 +21°C° 0 mm 1 mps 720 mmHg 60%
    02:00 +21°C° 0 mm 1 mps 720 mmHg 61%
    03:00 +20°C° 0 mm 1 mps 720 mmHg 61%
    04:00 +20°C° 0 mm 1 mps 720 mmHg 62%
    05:00 +20°C° 0 mm 1 mps 720 mmHg 63%
    06:00 +20°C° 0 mm 1 mps 720 mmHg 64%
    07:00 +23°C° 0 mm 1 mps 720 mmHg 56%
    08:00 +25°C° 0 mm 1 mps 720 mmHg 48%
    09:00 +28°C° 0 mm 1 mps 721 mmHg 41%
    10:00 +30°C° 0 mm 1 mps 721 mmHg 37%
    11:00 +31°C° 0 mm 2 mps 721 mmHg 34%
    12:00 +33°C° 0 mm 3 mps 721 mmHg 31%
    13:00 +33°C° 0 mm 3 mps 721 mmHg 31%
    14:00 +33°C° 0 mm 3 mps 721 mmHg 32%
    15:00 +33°C° 0 mm 3 mps 721 mmHg 33%
    16:00 +30°C° 0 mm 3 mps 721 mmHg 40%
    17:00 +28°C° 0 mm 3 mps 721 mmHg 46%
    18:00 +26°C° 0 mm 2 mps 721 mmHg 52%
    19:00 +24°C° 0 mm 2 mps 721 mmHg 61%
    20:00 +21°C° 0 mm 2 mps 721 mmHg 70%
    21:00 +19°C° 0 mm 2 mps 721 mmHg 78%
    22:00 +19°C° 0 mm 2 mps 721 mmHg 82%
    23:00 +18°C° 0 mm 2 mps 721 mmHg 85%
    Show more